Location: Krakow
(50.0830°N, 19.9170°E)
Time: 05:28:16
(UTC+02:00)

Tiros 1 - Pass Details

Date: 10 February 2023
Orbit: 627 x 662 km, 48.4° (Epoch: 25 March)

Event Time Altitude Azimuth Distance (km) Brightness Sun altitude
Rises 02:50:35 0° 281° (W) 2,920 - -39.7°
Reaches altitude 10° 02:53:04 10° 272° (W) 2,014 - -39.3°
Maximum altitude 02:57:12 32° 209° (SSW) 1,081 - -38.8°
Drops below altitude 10° 03:01:21 10° 146° (SE) 2,025 - -38.2°
Sets 03:03:51 0° 137° (SE) 2,938 - -37.8°
